Location: Clifton Park
(41.4873°N, 81.8024°W)
Time: 19:22:24
(UTC+00:00)

USA 238 DEB - Pass Details

Date: 21 January 2020
Orbit: 1021 x 1191 km, 63.4° (Epoch: 10 February)

Event Time Altitude Azimuth Distance (km) Brightness Sun altitude
Exits shadow 11:18:02 17° 316° (NW) 2,532 5.2 -16.8°
Maximum altitude 11:23:41 61° 241° (WSW) 1,303 3.9 -15.7°
Drops below altitude 10° 11:30:59 10° 163° (SSE) 3,099 6.5 -14.4°
Sets 11:33:46 0° 160° (SSE) 4,067 7.2 -13.9°
